HISTORICAL SENSOR DATA

Sensor Data Report

DB LIVE
CURRENT TIME--:--:--
DEVICE NETWORK Gateway Status
13 ESP · realtime ~1s · history 60s
Weather WS-MOD-01
OFFLINE
Actuator ACT-MOD-01
OFFLINE
Mainboard L3 MB-L3-01
OFFLINE
Mainboard L5 MB-L5-01
OFFLINE
Remote AC AC-REMOTE-01
OFFLINE
PZEM L3-01 PWR-L3-01
OFFLINE
PZEM L3-02 PWR-L3-02
OFFLINE
PZEM L3-03 PWR-L3-03
OFFLINE
PZEM L3-04 PWR-L3-04
OFFLINE
PZEM L5-01 PWR-L5-01
OFFLINE
PZEM L5-02 PWR-L5-02
OFFLINE
PZEM L5-03 PWR-L5-03
OFFLINE
PZEM L5-04 PWR-L5-04
OFFLINE
REPORT FILTER

Periode & Sensor

DATABASE HISTORY
RESET
QUICK RANGE Hari ini 7 hari 30 hari
PERIODE30 Aug 2026sampai 05 Sep 2026
TOTAL DATA40,859sensor readings
MINIMUM-0.50sesuai filter
AVERAGE59.90sesuai filter
MAXIMUM11,921.20sesuai filter
REPORT RESULT

Data Sensor

30/08/2026 — 05/09/2026 EXPORT CSV
NOTANGGALWAKTUDEVICECHANNELSENSORVALUEUNIT
101 05/09/2026 16:35:00 MB-L5-01Mainboard Lantai 5 L5-RAD-01 Radiation 1 11.00 W/m²
102 05/09/2026 16:35:00 MB-L5-01Mainboard Lantai 5 L5-BGT-02 Black Globe Temperature 2 29.70 °C
103 05/09/2026 16:35:00 MB-L5-01Mainboard Lantai 5 L5-SHT-02-T SHT20 2 Temperature 31.70 °C
104 05/09/2026 16:35:00 MB-L5-01Mainboard Lantai 5 L5-LUX-01 Illuminance / LUX 1 608.90 lux
105 05/09/2026 16:35:00 MB-L5-01Mainboard Lantai 5 L5-LUX-02 Illuminance / LUX 2 1,348.70 lux
106 05/09/2026 16:35:00 MB-L5-01Mainboard Lantai 5 L5-BGT-01 Black Globe Temperature 1 29.70 °C
107 05/09/2026 16:35:00 MB-L5-01Mainboard Lantai 5 L5-SHT-03-RH SHT20 3 Humidity 30.70 %RH
108 05/09/2026 16:35:00 MB-L5-01Mainboard Lantai 5 L5-SHT-01-T SHT20 1 Temperature 32.80 °C
109 05/09/2026 16:35:00 MB-L5-01Mainboard Lantai 5 L5-HFT-02 Heat Flow Temperature 2 30.10 °C
110 05/09/2026 16:35:00 MB-L5-01Mainboard Lantai 5 L5-RAD-02 Radiation 2 23.00 W/m²
111 05/09/2026 16:35:00 MB-L5-01Mainboard Lantai 5 L5-HFT-01 Heat Flow Temperature 1 30.10 °C
112 05/09/2026 16:35:00 MB-L5-01Mainboard Lantai 5 L5-LUX-06 Illuminance / LUX 6 3,410.00 lux
113 05/09/2026 16:35:00 MB-L5-01Mainboard Lantai 5 L5-AI-06 Analog Input 6 3.05 V
114 05/09/2026 16:35:00 MB-L5-01Mainboard Lantai 5 L5-LUX-04 Illuminance / LUX 4 574.80 lux
115 05/09/2026 16:35:00 MB-L5-01Mainboard Lantai 5 L5-AI-05 Analog Input 5 3.05 V
116 05/09/2026 16:35:00 MB-L5-01Mainboard Lantai 5 L5-LUX-03 Illuminance / LUX 3 5,440.80 lux
117 05/09/2026 16:35:00 MB-L5-01Mainboard Lantai 5 L5-AI-04 Analog Input 4 3.05 V
118 05/09/2026 16:34:00 MB-L5-01Mainboard Lantai 5 L5-ST-02 Surface Temperature 2 30.00 °C
119 05/09/2026 16:34:00 MB-L5-01Mainboard Lantai 5 L5-LUX-05 Illuminance / LUX 5 4,444.90 lux
120 05/09/2026 16:34:00 MB-L5-01Mainboard Lantai 5 L5-SHT-03-T SHT20 3 Temperature 33.00 °C
121 05/09/2026 16:34:00 MB-L5-01Mainboard Lantai 5 L5-BGT-03 Black Globe Temperature 3 30.00 °C
122 05/09/2026 16:34:00 MB-L5-01Mainboard Lantai 5 L5-RAD-01 Radiation 1 11.00 W/m²
123 05/09/2026 16:34:00 MB-L5-01Mainboard Lantai 5 L5-BGT-02 Black Globe Temperature 2 29.90 °C
124 05/09/2026 16:34:00 MB-L5-01Mainboard Lantai 5 L5-SHT-02-T SHT20 2 Temperature 31.40 °C
125 05/09/2026 16:34:00 MB-L5-01Mainboard Lantai 5 L5-LUX-01 Illuminance / LUX 1 566.50 lux
126 05/09/2026 16:34:00 MB-L5-01Mainboard Lantai 5 L5-LUX-02 Illuminance / LUX 2 1,372.20 lux
127 05/09/2026 16:34:00 MB-L5-01Mainboard Lantai 5 L5-BGT-01 Black Globe Temperature 1 30.00 °C
128 05/09/2026 16:34:00 MB-L5-01Mainboard Lantai 5 L5-SHT-03-RH SHT20 3 Humidity 31.00 %RH
129 05/09/2026 16:34:00 MB-L5-01Mainboard Lantai 5 L5-SHT-01-T SHT20 1 Temperature 32.50 °C
130 05/09/2026 16:34:00 MB-L5-01Mainboard Lantai 5 L5-HFT-02 Heat Flow Temperature 2 30.20 °C
131 05/09/2026 16:34:00 MB-L5-01Mainboard Lantai 5 L5-RAD-02 Radiation 2 26.00 W/m²
132 05/09/2026 16:34:00 MB-L5-01Mainboard Lantai 5 L5-HFT-01 Heat Flow Temperature 1 30.00 °C
133 05/09/2026 16:34:00 MB-L5-01Mainboard Lantai 5 L5-LUX-06 Illuminance / LUX 6 3,518.00 lux
134 05/09/2026 16:34:00 MB-L5-01Mainboard Lantai 5 L5-AI-06 Analog Input 6 3.05 V
135 05/09/2026 16:34:00 MB-L5-01Mainboard Lantai 5 L5-LUX-04 Illuminance / LUX 4 582.70 lux
136 05/09/2026 16:34:00 MB-L5-01Mainboard Lantai 5 L5-AI-05 Analog Input 5 3.05 V
137 05/09/2026 16:34:00 MB-L5-01Mainboard Lantai 5 L5-LUX-03 Illuminance / LUX 3 5,609.50 lux
138 05/09/2026 16:34:00 MB-L5-01Mainboard Lantai 5 L5-AI-04 Analog Input 4 3.05 V
139 05/09/2026 16:34:00 MB-L5-01Mainboard Lantai 5 L5-SHT-02-RH SHT20 2 Humidity 32.80 %RH
140 05/09/2026 16:34:00 MB-L5-01Mainboard Lantai 5 L5-SHT-01-RH SHT20 1 Humidity 31.10 %RH
141 05/09/2026 16:34:00 MB-L5-01Mainboard Lantai 5 L5-AI-03 Analog Input 3 3.05 V
142 05/09/2026 16:34:00 MB-L5-01Mainboard Lantai 5 L5-ST-01 Surface Temperature 1 29.80 °C
143 05/09/2026 16:34:00 MB-L5-01Mainboard Lantai 5 L5-AI-02 Analog Input 2 3.05 V
144 05/09/2026 16:34:00 MB-L5-01Mainboard Lantai 5 L5-AI-01 Analog Input 1 3.05 V
145 05/09/2026 16:33:00 MB-L5-01Mainboard Lantai 5 L5-RAD-01 Radiation 1 12.00 W/m²
146 05/09/2026 16:33:00 MB-L5-01Mainboard Lantai 5 L5-BGT-02 Black Globe Temperature 2 29.90 °C
147 05/09/2026 16:33:00 MB-L5-01Mainboard Lantai 5 L5-SHT-02-T SHT20 2 Temperature 31.00 °C
148 05/09/2026 16:33:00 MB-L5-01Mainboard Lantai 5 L5-LUX-01 Illuminance / LUX 1 646.00 lux
149 05/09/2026 16:33:00 MB-L5-01Mainboard Lantai 5 L5-LUX-02 Illuminance / LUX 2 1,417.80 lux
150 05/09/2026 16:33:00 MB-L5-01Mainboard Lantai 5 L5-BGT-01 Black Globe Temperature 1 30.10 °C
151 05/09/2026 16:33:00 MB-L5-01Mainboard Lantai 5 L5-SHT-03-RH SHT20 3 Humidity 31.40 %RH
152 05/09/2026 16:33:00 MB-L5-01Mainboard Lantai 5 L5-SHT-01-T SHT20 1 Temperature 32.30 °C
153 05/09/2026 16:33:00 MB-L5-01Mainboard Lantai 5 L5-HFT-02 Heat Flow Temperature 2 30.30 °C
154 05/09/2026 16:33:00 MB-L5-01Mainboard Lantai 5 L5-RAD-02 Radiation 2 28.00 W/m²
155 05/09/2026 16:33:00 MB-L5-01Mainboard Lantai 5 L5-HFT-01 Heat Flow Temperature 1 30.20 °C
156 05/09/2026 16:33:00 MB-L5-01Mainboard Lantai 5 L5-LUX-06 Illuminance / LUX 6 3,851.20 lux
157 05/09/2026 16:33:00 MB-L5-01Mainboard Lantai 5 L5-AI-06 Analog Input 6 3.05 V
158 05/09/2026 16:33:00 MB-L5-01Mainboard Lantai 5 L5-LUX-04 Illuminance / LUX 4 605.80 lux
159 05/09/2026 16:33:00 MB-L5-01Mainboard Lantai 5 L5-AI-05 Analog Input 5 3.05 V
160 05/09/2026 16:33:00 MB-L5-01Mainboard Lantai 5 L5-LUX-03 Illuminance / LUX 3 6,265.40 lux
161 05/09/2026 16:33:00 MB-L5-01Mainboard Lantai 5 L5-AI-04 Analog Input 4 3.05 V
162 05/09/2026 16:33:00 MB-L5-01Mainboard Lantai 5 L5-SHT-02-RH SHT20 2 Humidity 33.20 %RH
163 05/09/2026 16:33:00 MB-L5-01Mainboard Lantai 5 L5-SHT-01-RH SHT20 1 Humidity 31.50 %RH
164 05/09/2026 16:33:00 MB-L5-01Mainboard Lantai 5 L5-AI-03 Analog Input 3 3.05 V
165 05/09/2026 16:33:00 MB-L5-01Mainboard Lantai 5 L5-ST-01 Surface Temperature 1 29.80 °C
166 05/09/2026 16:33:00 MB-L5-01Mainboard Lantai 5 L5-AI-02 Analog Input 2 3.05 V
167 05/09/2026 16:33:00 MB-L5-01Mainboard Lantai 5 L5-AI-01 Analog Input 1 3.05 V
168 05/09/2026 16:33:00 MB-L5-01Mainboard Lantai 5 L5-ST-02 Surface Temperature 2 29.90 °C
169 05/09/2026 16:33:00 MB-L5-01Mainboard Lantai 5 L5-LUX-05 Illuminance / LUX 5 4,712.50 lux
170 05/09/2026 16:33:00 MB-L5-01Mainboard Lantai 5 L5-SHT-03-T SHT20 3 Temperature 32.70 °C
171 05/09/2026 16:33:00 MB-L5-01Mainboard Lantai 5 L5-BGT-03 Black Globe Temperature 3 30.00 °C
172 05/09/2026 16:32:00 MB-L5-01Mainboard Lantai 5 L5-BGT-01 Black Globe Temperature 1 29.80 °C
173 05/09/2026 16:32:00 MB-L5-01Mainboard Lantai 5 L5-SHT-03-RH SHT20 3 Humidity 31.90 %RH
174 05/09/2026 16:32:00 MB-L5-01Mainboard Lantai 5 L5-SHT-01-T SHT20 1 Temperature 31.70 °C
175 05/09/2026 16:32:00 MB-L5-01Mainboard Lantai 5 L5-HFT-02 Heat Flow Temperature 2 30.10 °C
176 05/09/2026 16:32:00 MB-L5-01Mainboard Lantai 5 L5-RAD-02 Radiation 2 28.00 W/m²
177 05/09/2026 16:32:00 MB-L5-01Mainboard Lantai 5 L5-HFT-01 Heat Flow Temperature 1 30.10 °C
178 05/09/2026 16:32:00 MB-L5-01Mainboard Lantai 5 L5-LUX-06 Illuminance / LUX 6 3,805.60 lux
179 05/09/2026 16:32:00 MB-L5-01Mainboard Lantai 5 L5-AI-06 Analog Input 6 3.05 V
180 05/09/2026 16:32:00 MB-L5-01Mainboard Lantai 5 L5-LUX-04 Illuminance / LUX 4 609.00 lux
181 05/09/2026 16:32:00 MB-L5-01Mainboard Lantai 5 L5-AI-05 Analog Input 5 3.05 V
182 05/09/2026 16:32:00 MB-L5-01Mainboard Lantai 5 L5-LUX-03 Illuminance / LUX 3 6,272.90 lux
183 05/09/2026 16:32:00 MB-L5-01Mainboard Lantai 5 L5-AI-04 Analog Input 4 3.05 V
184 05/09/2026 16:32:00 MB-L5-01Mainboard Lantai 5 L5-SHT-02-RH SHT20 2 Humidity 33.80 %RH
185 05/09/2026 16:32:00 MB-L5-01Mainboard Lantai 5 L5-SHT-01-RH SHT20 1 Humidity 32.00 %RH
186 05/09/2026 16:32:00 MB-L5-01Mainboard Lantai 5 L5-AI-03 Analog Input 3 3.05 V
187 05/09/2026 16:32:00 MB-L5-01Mainboard Lantai 5 L5-ST-01 Surface Temperature 1 29.70 °C
188 05/09/2026 16:32:00 MB-L5-01Mainboard Lantai 5 L5-AI-02 Analog Input 2 3.05 V
189 05/09/2026 16:32:00 MB-L5-01Mainboard Lantai 5 L5-AI-01 Analog Input 1 3.05 V
190 05/09/2026 16:32:00 MB-L5-01Mainboard Lantai 5 L5-ST-02 Surface Temperature 2 29.90 °C
191 05/09/2026 16:32:00 MB-L5-01Mainboard Lantai 5 L5-LUX-05 Illuminance / LUX 5 4,757.70 lux
192 05/09/2026 16:32:00 MB-L5-01Mainboard Lantai 5 L5-SHT-03-T SHT20 3 Temperature 32.30 °C
193 05/09/2026 16:32:00 MB-L5-01Mainboard Lantai 5 L5-BGT-03 Black Globe Temperature 3 29.80 °C
194 05/09/2026 16:32:00 MB-L5-01Mainboard Lantai 5 L5-RAD-01 Radiation 1 12.00 W/m²
195 05/09/2026 16:32:00 MB-L5-01Mainboard Lantai 5 L5-BGT-02 Black Globe Temperature 2 29.80 °C
196 05/09/2026 16:32:00 MB-L5-01Mainboard Lantai 5 L5-SHT-02-T SHT20 2 Temperature 30.60 °C
197 05/09/2026 16:32:00 MB-L5-01Mainboard Lantai 5 L5-LUX-01 Illuminance / LUX 1 537.30 lux
198 05/09/2026 16:32:00 MB-L5-01Mainboard Lantai 5 L5-LUX-02 Illuminance / LUX 2 1,426.10 lux
199 05/09/2026 16:24:00 MB-L5-01Mainboard Lantai 5 L5-LUX-04 Illuminance / LUX 4 779.90 lux
200 05/09/2026 16:24:00 MB-L5-01Mainboard Lantai 5 L5-AI-05 Analog Input 5 3.05 V
Menampilkan maksimal 100 data per halaman